カタログに戻る

SL-16 DEB

運用中LEO
NORAD 22295·DEBRIS·🇷🇺 Russia

打ち上げ Dec 25, 1992 から Baikonur Cosmodrome

Loading…

次のパス (今後24時間)

TLE

最新Source: Space-Track

元期: Sep 14, 2026, 13:57 UTC

1 22295U 92093K   26257.58154142  .00000094  00000-0  80726-4 0  9995
2 22295  71.0084 339.6637 0099151 290.5237 132.8329 14.07103132729730

AllMySatでSL-16 DEBをリアルタイム追跡

Download on the App Store